Location: Bushrod
(6.3500°N, 10.7833°W)
Time: 12:42:05
(UTC+00:00)

Cosmos 2074 Rocket - Pass Details

Date: 17 September 2019
Orbit: 966 x 987 km, 82.9° (Epoch: 15 October)

Event Time Altitude Azimuth Distance (km) Brightness Sun altitude
Rises 19:51:17 0° 1° (N) 3,649 7.1 -18.0°
Reaches altitude 10° 19:53:48 10° 3° (N) 2,702 6.3 -18.7°
Maximum altitude 19:59:57 70° 87° (E) 1,022 3.8 -20.2°
Drops below altitude 10° 20:06:06 10° 170° (S) 2,701 6.2 -21.7°
Sets 20:08:36 0° 172° (S) 3,649 6.9 -22.3°
